Torna al catalogo

STARLINK-6144

AttivoComunicazioniVLEO
NORAD 56894·PAYLOAD·🇺🇸 United States

Lanciato Jun 12, 2023 da Cape Canaveral Space Force Station

Loading…

Prossimi Passaggi (prossime 24 ore)

TLE

AggiornatoSource: CelesTrak SupGP

Epoca: Sep 14, 2026, 21:38 UTC

1 56894C 23083U   26257.90187500  .00014669  00000+0  53138-3 0  2575
2 56894  43.0016 100.0593 0001366 268.5181 236.5175 15.27566701    13

Traccia STARLINK-6144 in tempo reale con AllMySat

Download on the App Store